This demonstration page uses our WeatherBlox Daily Observations layout. Learn more.

Left ArrowRight Arrow

Hourly Observations for September 29, 2020

Temp ( °F °C ) Dew Point ( °F °C ) Humidity (%) Winds ( mph kmh ) Pressure ( in mb ) Visibility ( mi km ) Precip ( " mm )
12:52 am 00:52 Clear 48 8.9 39 3.9 71 71 N 5 7 30.06 1018 10 16 0.00 0.00
1:52 am 01:52 Clear 47 8.3 39 3.9 74 74 NNE 5 7 30.06 1018 10 16 0.00 0.00
2:52 am 02:52 Clear 47 8.3 39 3.9 74 74 Calm 30.05 1018 10 16 0.00 0.00
3:52 am 03:52 Clear 46 7.8 39 3.9 77 77 Calm 30.04 1017 10 16 0.00 0.00
4:52 am 04:52 Clear 46 7.8 39 3.9 77 77 Calm 30.04 1017 10 16 0.00 0.00
5:52 am 05:52 Clear 44 6.7 39 3.9 83 83 VRB 3 6 30.05 1018 10 16 0.00 0.00
6:52 am 06:52 Mostly Clear 44 6.7 39 3.9 83 83 N 3 6 30.05 1018 10 16 0.00 0.00
7:52 am 07:52 Mostly Cloudy 45 7.2 40 4.4 83 83 E 3 6 30.04 1017 10 16 0.00 0.00
8:52 am 08:52 Mostly Cloudy 51 10.6 40 4.4 66 66 W 7 11 30.04 1017 10 16 0.00 0.00
9:52 am 09:52 Mostly Cloudy 53 11.7 40 4.4 61 61 Calm 30.02 1017 10 16 0.00 0.00
10:52 am 10:52 Mostly Cloudy 62 16.7 42 5.6 48 48 VRB 5 7 29.99 1016 10 16 0.00 0.00
11:52 am 11:52 Partly Cloudy 65 18.3 41 5 42 42 SW 9 15 29.96 1014 10 16 0.00 0.00
12:52 pm 12:52 Partly Cloudy 69 20.6 39 3.9 33 33 SW 14 22 29.92 1013 10 16 0.00 0.00
1:52 pm 13:52 Partly Cloudy 75 23.9 32 0 21 21 WSW 16 26 29.88 1012 10 16 0.00 0.00
2:52 pm 14:52 Partly Cloudy 77 25 29 -1.7 17 17 W 10 17 29.85 1011 10 16 0.00 0.00
3:52 pm 15:52 Mostly Cloudy 78 25.6 29 -1.7 16 16 W 12 19 29.81 1010 10 16 0.00 0.00
4:52 pm 16:52 Mostly Cloudy 80 26.7 32 0 17 17 W 14 22 29.78 1008 10 16 0.00 0.00
5:52 pm 17:52 Mostly Cloudy 79 26.1 33 0.6 19 19 WSW 9 15 29.76 1008 10 16 0.00 0.00
6:52 pm 18:52 Mostly Cloudy 74 23.3 38 3.3 27 27 WNW 7 11 29.76 1008 10 16 0.00 0.00
7:52 pm 19:52 Partly Cloudy 73 22.8 42 5.6 33 33 WNW 9 15 29.77 1008 10 16 0.00 0.00
8:52 pm 20:52 Mostly Clear 67 19.4 43 6.1 42 42 N 10 17 29.79 1009 10 16 0.00 0.00
9:52 pm 21:52 Clear 64 17.8 43 6.1 46 46 N 5 7 29.80 1009 10 16 0.00 0.00
10:52 pm 22:52 Mostly Clear 61 16.1 45 7.2 56 56 Calm 29.80 1009 10 16 0.00 0.00
11:52 pm 23:52 Partly Cloudy 58 14.4 47 8.3 67 67 SSE 3 6 29.79 1009 10 16 0.00 0.00

Powered by AerisWeather